CZ-2D DEB, 44611

Orbit data source: Space-Track

CZ-2D DEB, 44611 is space debris in SSO originally from a launch on Mon, 09 Oct 2017 UTC launched from the Jiuquan Satellite Launch Center, China (JSC). Debris objects in space refer to the collection of defunct objects orbiting the Earth. Examples of debris include non-operational satellites, rocket bodies, and fragments generated from explosions, collisions, or faulty payload assembly.

Loading next visibility...
Identifier
44611, 2017-060D
Orbit
SSO
Country
Flag of CNCN / PRC
Related business
Manufacturer
Unknown
Mission
Spacecraft
Bus & Motor
Unknown
Mass
Unknown
Launch date (UTC)
2017-10-09 (8 years ago)
Launch vehicle
Unknown
Launch site
Jiuquan Satellite Launch Center, China (JSC)
Object type
Payload
Rocket body
Debris
Shape & HBR
Unknown
Radar Cross Section
Small (<0.1 m²)

Expand to show TLE details & history
Last TLE update: 2 days ago

TLE from 2 days ago
0 CZ-2D DEB
1 44611U 17060D   25259.11539186  .00005164  00000-0  51337-3 0  9995
2 44611  98.1948  38.6313 0029235 298.4510  61.3762 14.91846780426220
Epoch: 2025-09-16T02:46Z
TLE epoch observation values (Epoch: 2025-09-16T02:46:09.856Z)
Latitude
-0.00011°
Longitude
1.77992°
Altitude
585.488 km
Speed
7.573 km/s
True Right ascension
02h 34m 31s
True Declination
0° 00' 00"
Sunlit
Object was in full shadow at epoch
Visualization orbit readout
Latitude
Unknown
Longitude
Unknown
Altitude
Unknown
Speed
Unknown
Apparent Right ascension
Unknown
Apparent Declination
Unknown
Sunlit
N/A
Visualization observer readout
Local Sidereal Time
15:01:31
Azimuth
Unknown
Elevation
Unknown
Doppler factor
Unknown
Orbital elements
Apogee altitude
609.585 km
Perigee altitude
568.847 km
Semi-major axis
6,967.353 km
Eccentricity
0.00292
Inclination
98.1948°
RAAN
38.6313°
Arg. of periapsis
298.451°
True anomaly
61.67078°
Mean anomaly
61.3762°
Eccentric anomaly
61.52344°
Mean motion
3.732 °/min
Orbital period
96.46 mins
BSTAR
0.00051337
Loading maneuver chart data...
Computing Atmospheric mass density...
Loading historical data...
Loading historical data...
Loading historical data...
Loading historical data...
Loading historical data...
Loading historical data...
Loading historical data...
Other satellites on launch #60 in the year 2017 (2017-10-09 UTC)

Documentation

Showing up to 5 results
|